This is the latest recevied weather packets stored in our database for station/object WA6MHA-11. If no packets are shown the sender has not sent any weather packets the latest 10 day(s).
| Time | Temp. | Humidity | Pressure | Rain* | Wind** | Luminosity | Snow |
|---|---|---|---|---|---|---|---|
| 1777772662 | 21.67° C | 34% | 1011.2 hPa | 0 mm | - | - | - |
| 1777772421 | 21.67° C | 34% | 1011.2 hPa | 0 mm | - | - | - |
| 1777772179 | 22.22° C | 34% | 1011.2 hPa | 0 mm | - | - | - |
| 1777771938 | 22.22° C | 33% | 1011.1 hPa | 0 mm | - | - | - |
| 1777771697 | 22.78° C | 33% | 1011.2 hPa | 0 mm | - | - | - |
| 1777771214 | 23.33° C | 32% | 1011.3 hPa | 0 mm | - | - | - |
| 1777770732 | 23.89° C | 32% | 1011.2 hPa | 0 mm | - | - | - |
| 1777770251 | 24.44° C | 31% | 1011.1 hPa | 0 mm | - | - | - |
| 1777770009 | 24.44° C | 31% | 1011 hPa | 0 mm | - | - | - |
| 1777769771 | 24.44° C | 31% | 1011.1 hPa | 0 mm | - | - | - |
| 1777769525 | 24.44° C | 31% | 1011.1 hPa | 0 mm | - | - | - |
| 1777769284 | 24.44° C | 31% | 1011.1 hPa | 0 mm | - | - | - |
| 1777768802 | 25° C | 30% | 1011.1 hPa | 0 mm | - | - | - |
| 1777768561 | 25° C | 31% | 1011.2 hPa | 0 mm | - | - | - |
| 1777768319 | 25° C | 30% | 1011.2 hPa | 0 mm | - | - | - |
| 1777767601 | 25.56° C | 30% | 1011.2 hPa | 0 mm | - | - | - |
| 1777767354 | 25.56° C | 30% | 1011.2 hPa | 0 mm | - | - | - |
| 1777767114 | 26.11° C | 30% | 1011.2 hPa | 0 mm | - | - | - |
| 1777766871 | 26.11° C | 30% | 1011.2 hPa | 0 mm | - | - | - |
| 1777766389 | 26.11° C | 30% | 1011.1 hPa | 0 mm | - | - | - |
| 1777766148 | 26.11° C | - | - | - | - | - | - |
| 1777766148 | 26.11° C | 30% | 1011.3 hPa | 0 mm | - | - | - |
| 1777765906 | 26.67° C | 30% | 1011.3 hPa | 0 mm | - | - | - |
| 1777765665 | 26.11° C | 30% | 1011.4 hPa | 0 mm | - | - | - |
| 1777765182 | 25.56° C | 30% | 1011.4 hPa | 0 mm | - | - | - |
* Rain since midnight (hover to see other rain measurements)
** Current wind speed in m/s (hover to see current wind gust speed)